Bigfork, MN

10:22 AM CST on January 22, 2018 (GMT -0600)
Bigfork Municipal

Weather History for KFOZ - October, 2012

Change the Weather History Date:

Monday, October 15, 2012

  Actual Average (KGPZ) Record (KGPZ)
Temperature  
Mean Temperature 40 °F -  
Max Temperature 57 °F 54 °F 80 °F (1929)
Min Temperature 23 °F 33 °F 14 °F (1937)
Degree Days  
Heating Degree Days 25    
Moisture  
Dew Point 31 °F    
Average Humidity 67    
Maximum Humidity 93    
Minimum Humidity 44    
Precipitation  
Precipitation 0.00 in - - ()
Sea Level Pressure  
Sea Level Pressure 29.82 in    
Wind  
Wind Speed 3 mph (South)    
Max Wind Speed 14 mph    
Max Gust Speed 18 mph    
Visibility 10 miles    
Events Rain    
Averages and records for this station are not official NWS values.
T = Trace of Precipitation, MM = Missing Value Source: NWS Daily Summary

Daily Weather History Graph

Daily Weather History Graph

Search for Another Location

Airport or City:

Trip Planner

Search our weather history database for the weather conditions in past years. The results will help you decide how hot, cold, wet, or windy it might be!

Date:

Astronomy

Oct. 15, 2012 Rise Set
Actual Time 7:34 AM CDT 6:25 PM CDT
Civil Twilight 7:03 AM CDT 6:56 PM CDT
Nautical Twilight 6:27 AM CDT 7:32 PM CDT
Astronomical Twilight 5:51 AM CDT 8:07 PM CDT
Moon 7:50 AM CDT (10/15) 6:19 PM CDT (10/15)
Length of Visible Light 11h 53m
Length of Day
10h 50m
New Moon, 0% of the Moon is Illuminated
Oct 15
New Moon
Oct 21
First Quarter
Oct 29
Full
Nov 6
Last Quarter
Nov 13
New

Hourly Weather History & Observations

Time (CDT) Temp. Windchill Dew Point Humidity Pressure Visibility Wind Dir Wind Speed Gust Speed Precip Events Conditions
12:13 AM 32.0 °F 28.7 °F 28.4 °F 87% 29.88 in 10.0 mi WNW 3.5 mph - N/A   Clear
12:33 AM 35.6 °F - 28.4 °F 75% 29.88 in 10.0 mi Calm Calm - N/A   Clear
12:53 AM 30.2 °F - 26.6 °F 86% 29.88 in 10.0 mi Calm Calm - N/A   Clear
1:13 AM 33.8 °F - 28.4 °F 81% 29.88 in 10.0 mi Calm Calm - N/A   Clear
1:33 AM 30.2 °F - 26.6 °F 86% 29.88 in 10.0 mi Calm Calm - N/A   Clear
1:53 AM 30.2 °F - 26.6 °F 86% 29.88 in 10.0 mi Calm Calm - N/A   Clear
2:13 AM 30.2 °F - 28.4 °F 93% 29.89 in 10.0 mi Calm Calm - N/A   Clear
2:33 AM 30.2 °F - 26.6 °F 86% 29.88 in 10.0 mi Calm Calm - N/A   Clear
2:53 AM 28.4 °F - 26.6 °F 93% 29.89 in 10.0 mi Calm Calm - N/A   Clear
3:13 AM 28.4 °F - 26.6 °F 93% 29.89 in 10.0 mi Calm Calm - N/A   Clear
3:33 AM 26.6 °F - 24.8 °F 93% 29.89 in 10.0 mi Calm Calm - N/A   Clear
3:53 AM 26.6 °F - 24.8 °F 93% 29.88 in 10.0 mi Calm Calm - N/A   Clear
4:13 AM 26.6 °F - 24.8 °F 93% 29.88 in 10.0 mi Calm Calm - N/A   Clear
4:33 AM 26.6 °F - 24.8 °F 93% 29.89 in 10.0 mi Calm Calm - N/A   Clear
4:53 AM 24.8 °F - 23.0 °F 93% 29.89 in 10.0 mi Calm Calm - N/A   Clear
5:13 AM 24.8 °F - 23.0 °F 93% 29.89 in 10.0 mi Calm Calm - N/A   Clear
5:33 AM 24.8 °F - 23.0 °F 93% 29.90 in 10.0 mi Calm Calm - N/A   Clear
5:53 AM 24.8 °F - 23.0 °F 93% 29.89 in 10.0 mi Calm Calm - N/A   Clear
6:13 AM 24.8 °F - 21.2 °F 86% 29.88 in 10.0 mi Calm Calm - N/A   Clear
6:33 AM 24.8 °F - 23.0 °F 93% 29.89 in 10.0 mi Calm Calm - N/A   Clear
6:53 AM 24.8 °F - 21.2 °F 86% 29.89 in 10.0 mi Calm Calm - N/A   Clear
7:13 AM 23.0 °F - 21.2 °F 93% 29.90 in 10.0 mi Calm Calm - N/A   Clear
7:33 AM 23.0 °F - 21.2 °F 93% 29.90 in 10.0 mi Calm Calm - N/A   Clear
7:53 AM 24.8 °F - 21.2 °F 86% 29.89 in 10.0 mi Calm Calm - N/A   Clear
8:13 AM 24.8 °F - 23.0 °F 93% 29.89 in 10.0 mi Calm Calm - N/A   Clear
8:33 AM 26.6 °F - 24.8 °F 93% 29.90 in 10.0 mi Calm Calm - N/A   Clear
8:53 AM 30.2 °F - 28.4 °F 93% 29.91 in 10.0 mi Calm Calm - N/A   Clear
9:13 AM 33.8 °F - 30.2 °F 87% 29.90 in 10.0 mi Calm Calm - N/A   Clear
9:33 AM 37.4 °F - 33.8 °F 87% 29.90 in 10.0 mi Calm Calm - N/A   Clear
9:53 AM 39.2 °F - 35.6 °F 87% 29.90 in 10.0 mi Calm Calm - N/A   Clear
10:13 AM 42.8 °F - 37.4 °F 81% 29.90 in 10.0 mi Calm Calm - N/A   Clear
10:33 AM 46.4 °F 44.3 °F 37.4 °F 71% 29.90 in 10.0 mi South 4.6 mph - N/A   Clear
10:53 AM 48.2 °F - 35.6 °F 62% 29.89 in 10.0 mi South 3.5 mph - N/A   Clear
11:13 AM 51.8 °F - 35.6 °F 54% 29.89 in 10.0 mi SSW 6.9 mph - N/A   Clear
11:33 AM 53.6 °F - 35.6 °F 51% 29.89 in 10.0 mi SSW 5.8 mph - N/A   Clear
11:53 AM 53.6 °F - 35.6 °F 51% 29.88 in 10.0 mi South 4.6 mph - N/A   Clear
12:13 PM 53.6 °F - 33.8 °F 47% 29.87 in 10.0 mi SSW 5.8 mph - N/A   Clear
12:33 PM 55.4 °F - 33.8 °F 44% 29.86 in 10.0 mi SSE 5.8 mph - N/A   Clear
12:53 PM 55.4 °F - 35.6 °F 47% 29.86 in 10.0 mi SSE 5.8 mph - N/A   Clear
1:13 PM 55.4 °F - 35.6 °F 47% 29.85 in 10.0 mi South 6.9 mph - N/A   Clear
1:33 PM 55.4 °F - 35.6 °F 47% 29.84 in 10.0 mi SSW 6.9 mph - N/A   Clear
1:53 PM 55.4 °F - 35.6 °F 47% 29.83 in 10.0 mi South 8.1 mph - N/A   Clear
2:33 PM 57.2 °F - 35.6 °F 44% 29.81 in 10.0 mi South 9.2 mph - N/A   Clear
2:53 PM 55.4 °F - 35.6 °F 47% 29.81 in 10.0 mi SSE 8.1 mph - N/A   Clear
3:13 PM 55.4 °F - 35.6 °F 47% 29.81 in 10.0 mi South 9.2 mph - N/A   Clear
3:33 PM 55.4 °F - 35.6 °F 47% 29.81 in 10.0 mi South 6.9 mph - N/A   Clear
3:53 PM 55.4 °F - 35.6 °F 47% 29.80 in 10.0 mi South 9.2 mph - N/A   Clear
4:13 PM 55.4 °F - 35.6 °F 47% 29.80 in 10.0 mi South 9.2 mph - N/A   Clear
4:33 PM 55.4 °F - 35.6 °F 47% 29.79 in 10.0 mi South 9.2 mph - N/A   Clear
4:53 PM 55.4 °F - 35.6 °F 47% 29.78 in 10.0 mi South 6.9 mph - N/A   Scattered Clouds
5:13 PM 55.4 °F - 35.6 °F 47% 29.78 in 10.0 mi SSE 5.8 mph - N/A   Scattered Clouds
5:33 PM 55.4 °F - 35.6 °F 47% 29.77 in 10.0 mi SSE 6.9 mph - N/A   Mostly Cloudy
5:53 PM 55.4 °F - 35.6 °F 47% 29.76 in 10.0 mi SSE 5.8 mph - N/A   Overcast
6:13 PM 55.4 °F - 35.6 °F 47% 29.75 in 10.0 mi SSE 6.9 mph - N/A Rain Light Rain
6:33 PM 53.6 °F - 35.6 °F 51% 29.74 in 10.0 mi SSE 6.9 mph - N/A Rain Light Rain
6:53 PM 53.6 °F - 35.6 °F 51% 29.74 in 10.0 mi SSE 4.6 mph - N/A   Overcast
7:13 PM 53.6 °F - 35.6 °F 51% 29.73 in 10.0 mi SSE 6.9 mph - N/A   Overcast
7:33 PM 53.6 °F - 35.6 °F 51% 29.73 in 10.0 mi SSE 6.9 mph - N/A   Mostly Cloudy
7:53 PM 53.6 °F - 35.6 °F 51% 29.72 in 10.0 mi SSE 9.2 mph - N/A   Mostly Cloudy
8:13 PM 53.6 °F - 35.6 °F 51% 29.71 in 10.0 mi SSE 8.1 mph - N/A   Mostly Cloudy
8:33 PM 53.6 °F - 35.6 °F 51% 29.71 in 10.0 mi SSE 9.2 mph - N/A   Scattered Clouds
8:53 PM 53.6 °F - 33.8 °F 47% 29.70 in 10.0 mi SSE 6.9 mph - N/A   Scattered Clouds
9:13 PM 53.6 °F - 33.8 °F 47% 29.70 in 10.0 mi SSE 10.4 mph - N/A   Scattered Clouds
9:33 PM 53.6 °F - 33.8 °F 47% 29.69 in 10.0 mi SSE 9.2 mph - N/A   Scattered Clouds
9:53 PM 53.6 °F - 33.8 °F 47% 29.69 in 10.0 mi SSE 12.7 mph 17.3 mph N/A   Mostly Cloudy
10:13 PM 53.6 °F - 33.8 °F 47% 29.68 in 10.0 mi South 13.8 mph 18.4 mph N/A   Mostly Cloudy
10:33 PM 53.6 °F - 33.8 °F 47% 29.67 in 10.0 mi South 10.4 mph - N/A   Overcast
10:53 PM 53.6 °F - 33.8 °F 47% 29.67 in 10.0 mi SSE 11.5 mph 18.4 mph N/A   Overcast
11:13 PM 53.6 °F - 33.8 °F 47% 29.66 in 10.0 mi South 10.4 mph 16.1 mph N/A   Mostly Cloudy
11:33 PM 53.6 °F - 35.6 °F 51% 29.65 in 10.0 mi South 9.2 mph - N/A   Scattered Clouds
11:53 PM 53.6 °F - 35.6 °F 51% 29.64 in 10.0 mi SSE 10.4 mph - N/A   Scattered Clouds